This is the latest recevied weather packets stored in our database for station/object LRCV. If no packets are shown the sender has not sent any weather packets the latest 10 day(s).
| Time | Temp. | Humidity | Pressure | Rain* | Wind** | Luminosity | Snow |
|---|---|---|---|---|---|---|---|
| 1777625321 | 10° C | 62% | 1026 hPa | - | - | - | - |
| 1777624422 | 10° C | 62% | 1026 hPa | - | - | - | - |
| 1777623539 | 10° C | 71% | 1026 hPa | - | - | - | - |
| 1777622621 | 10° C | 71% | 1026 hPa | - | - | - | - |
| 1777621721 | 7.78° C | 76% | 1026 hPa | - | - | - | - |
| 1777620821 | 7.78° C | 76% | 1026 hPa | - | - | - | - |
| 1777619922 | 7.78° C | 82% | 1026 hPa | - | - | - | - |
| 1777619021 | 7.78° C | 82% | 1026 hPa | - | - | - | - |
| 1777618125 | 7.22° C | 81% | 1026 hPa | - | - | - | - |
| 1777617222 | 7.22° C | 81% | 1026 hPa | - | - | - | - |
| 1777616323 | 7.22° C | 87% | 1026 hPa | - | - | - | - |
| 1777615421 | 7.22° C | 87% | 1026 hPa | - | - | - | - |
| 1777614522 | 6.11° C | 93% | 1026 hPa | - | - | - | - |
| 1777613622 | 6.11° C | 93% | 1026 hPa | - | - | - | - |
| 1777612722 | 5° C | 100% | 1026 hPa | - | - | - | - |
| 1777611821 | 5° C | 100% | 1026 hPa | - | - | - | - |
| 1777610921 | 3.89° C | 100% | 1026 hPa | - | - | - | - |
| 1777610021 | 3.89° C | 100% | 1026 hPa | - | - | - | - |
| 1777609121 | 2.78° C | 100% | 1026 hPa | - | - | - | - |
| 1777608222 | 2.78° C | 100% | 1026 hPa | - | - | - | - |
| 1777607321 | 2.78° C | 100% | 1026 hPa | - | - | - | - |
| 1777606422 | 2.78° C | 100% | 1026 hPa | - | - | - | - |
| 1777605521 | 2.78° C | 100% | 1026 hPa | - | - | - | - |
| 1777604622 | 2.78° C | 100% | 1026 hPa | - | - | - | - |
| 1777603722 | 3.89° C | 100% | 1026 hPa | - | - | - | - |
* Rain since midnight (hover to see other rain measurements)
** Current wind speed in m/s (hover to see current wind gust speed)